�������l�o���
Date,Time,MP-1(��Sv/h),MP-2(��Sv/h),MP-3(��Sv/h),MP-4(��Sv/h),MP-5(��Sv/h),MP-6(��Sv/h),MP-7(��Sv/h),MP-8(��Sv/h),����,����(m/s),���J
2021/11/01,00:00,0.585,0.877,0.557,1.068,0.751,0.357,0.618,0.582,�k,3.0,��
2021/11/01,00:10,0.585,0.877,0.557,1.069,0.753,0.357,0.618,0.583,�k,2.8,��
2021/11/01,00:20,0.584,0.877,0.557,1.068,0.752,0.356,0.617,0.583,�k�k��,2.6,��
2021/11/01,00:30,0.584,0.877,0.556,1.070,0.751,0.358,0.619,0.582,�k�k��,3.6,��
2021/11/01,00:40,0.583,0.876,0.557,1.068,0.753,0.356,0.618,0.582,�k�k��,3.6,��
2021/11/01,00:50,0.583,0.876,0.555,1.069,0.753,0.357,0.618,0.581,�k�k��,3.7,��
2021/11/01,01:00,0.583,0.879,0.556,1.069,0.753,0.356,0.618,0.583,�k�k��,3.8,��
2021/11/01,01:10,0.585,0.875,0.556,1.070,0.753,0.356,0.616,0.582,�k�k��,3.7,��
2021/11/01,01:20,0.583,0.875,0.558,1.070,0.751,0.356,0.619,0.581,�k�k��,2.8,��
2021/11/01,01:30,0.585,0.876,0.557,1.069,0.753,0.357,0.617,0.582,�k�k��,4.2,��
2021/11/01,01:40,0.584,0.875,0.556,1.069,0.751,0.358,0.617,0.583,�k�k��,4.0,��
2021/11/01,01:50,0.583,0.874,0.557,1.069,0.752,0.357,0.617,0.581,�k�k��,4.0,��
2021/11/01,02:00,0.585,0.876,0.556,1.069,0.753,0.356,0.616,0.581,�k�k��,4.4,��
2021/11/01,02:10,0.585,0.878,0.556,1.070,0.751,0.355,0.618,0.582,�k,3.3,��
2021/11/01,02:20,0.583,0.877,0.556,1.069,0.752,0.356,0.617,0.581,�k�k��,2.3,��
2021/11/01,02:30,0.584,0.877,0.556,1.070,0.751,0.356,0.618,0.581,�k�k��,2.9,��
2021/11/01,02:40,0.584,0.875,0.556,1.069,0.750,0.356,0.617,0.580,�k�k��,2.3,��
2021/11/01,02:50,0.585,0.876,0.557,1.070,0.751,0.357,0.617,0.582,�k��,1.9,��
2021/11/01,03:00,0.584,0.875,0.557,1.070,0.750,0.356,0.617,0.581,�k��,1.7,��
2021/11/01,03:10,0.585,0.878,0.556,1.069,0.751,0.357,0.619,0.582,�k��,1.9,��
2021/11/01,03:20,0.585,0.875,0.555,1.070,0.753,0.356,0.616,0.581,�k�k��,1.7,��
2021/11/01,03:30,0.584,0.876,0.556,1.068,0.751,0.355,0.617,0.580,�k�k��,2.0,��
2021/11/01,03:40,0.584,0.876,0.558,1.070,0.753,0.354,0.617,0.582,�k�k��,2.2,��
2021/11/01,03:50,0.583,0.873,0.556,1.069,0.751,0.357,0.617,0.582,�k�k��,2.3,��
2021/11/01,04:00,0.584,0.874,0.556,1.069,0.751,0.356,0.618,0.582,�k,2.3,��
2021/11/01,04:10,0.582,0.876,0.556,1.070,0.751,0.356,0.618,0.581,�k�k��,3.0,��
2021/11/01,04:20,0.584,0.875,0.556,1.069,0.751,0.356,0.616,0.580,�k�k��,3.5,��
2021/11/01,04:30,0.586,0.875,0.556,1.070,0.752,0.357,0.618,0.583,�k�k��,4.1,��
2021/11/01,04:40,0.583,0.873,0.555,1.068,0.751,0.355,0.617,0.581,�k�k��,4.6,��
2021/11/01,04:50,0.584,0.878,0.556,1.071,0.750,0.356,0.618,0.581,�k�k��,4.2,��
2021/11/01,05:00,0.583,0.875,0.555,1.070,0.751,0.356,0.618,0.581,�k�k��,3.8,��
2021/11/01,05:10,0.583,0.874,0.557,1.068,0.752,0.355,0.619,0.581,�k�k��,3.9,��
2021/11/01,05:20,0.584,0.876,0.557,1.068,0.752,0.357,0.619,0.581,�k�k��,4.0,��
2021/11/01,05:30,0.583,0.876,0.557,1.069,0.751,0.356,0.615,0.581,�k�k��,3.9,��
2021/11/01,05:40,0.583,0.875,0.558,1.068,0.753,0.354,0.617,0.582,�k�k��,4.1,��
2021/11/01,05:50,0.583,0.876,0.556,1.069,0.751,0.355,0.617,0.581,�k�k��,4.2,��
2021/11/01,06:00,0.582,0.876,0.557,1.068,0.751,0.355,0.617,0.582,�k�k��,3.9,��
2021/11/01,06:10,0.582,0.876,0.557,1.070,0.752,0.356,0.616,0.581,�k�k��,4.1,��
2021/11/01,06:20,0.581,0.873,0.555,1.070,0.751,0.356,0.618,0.581,�k�k��,3.9,��
2021/11/01,06:30,0.583,0.875,0.557,1.070,0.750,0.356,0.618,0.582,�k�k��,3.4,��
2021/11/01,06:40,0.584,0.874,0.556,1.071,0.753,0.356,0.618,0.581,�k�k��,3.4,��
2021/11/01,06:50,0.585,0.877,0.557,1.069,0.751,0.356,0.619,0.581,�k�k��,3.0,��
2021/11/01,07:00,0.581,0.876,0.555,1.071,0.751,0.355,0.618,0.581,�k�k��,2.6,��
2021/11/01,07:10,0.583,0.875,0.556,1.069,0.751,0.357,0.617,0.582,�k�k��,3.0,��
2021/11/01,07:20,0.585,0.877,0.556,1.069,0.752,0.355,0.617,0.581,�k�k��,3.6,��
2021/11/01,07:30,0.582,0.877,0.557,1.069,0.752,0.357,0.618,0.582,�k��,2.3,��
2021/11/01,07:40,0.582,0.877,0.555,1.070,0.753,0.356,0.618,0.582,�k��,1.7,��
2021/11/01,07:50,0.584,0.876,0.555,1.069,0.754,0.355,0.618,0.581,�k��,2.5,��
2021/11/01,08:00,0.583,0.876,0.556,1.067,0.753,0.356,0.620,0.583,�k��,1.7,��
2021/11/01,08:10,0.585,0.876,0.557,1.071,0.752,0.356,0.621,0.583,���k��,1.9,��
2021/11/01,08:20,0.585,0.874,0.556,1.068,0.753,0.357,0.619,0.583,���k��,2.0,��
2021/11/01,08:30,0.585,0.876,0.558,1.070,0.753,0.356,0.619,0.582,���k��,1.7,��
2021/11/01,08:40,0.587,0.872,0.556,1.069,0.753,0.355,0.617,0.583,�k�k��,1.2,��
2021/11/01,08:50,0.585,0.874,0.559,1.070,0.753,0.356,0.619,0.582,���k��,0.9,��
2021/11/01,09:00,0.584,0.872,0.557,1.072,0.754,0.356,0.615,0.581,�k�k��,0.8,��
2021/11/01,09:10,0.583,0.871,0.559,1.071,0.754,0.356,0.616,0.583,�k��,1.2,��
2021/11/01,09:20,0.586,0.872,0.557,1.068,0.751,0.354,0.617,0.582,�k�k��,1.4,��
2021/11/01,09:30,0.582,0.871,0.558,1.073,0.751,0.355,0.616,0.584,�k,1.2,��
2021/11/01,09:40,0.584,0.870,0.557,1.073,0.754,0.354,0.616,0.583,�k�k��,2.0,��
2021/11/01,09:50,0.584,0.875,0.558,1.069,0.755,0.354,0.616,0.582,�k�k��,1.7,��
2021/11/01,10:00,0.584,0.873,0.559,1.068,0.756,0.353,0.618,0.583,�k�k��,2.6,��
2021/11/01,10:10,0.583,0.873,0.556,1.071,0.753,0.354,0.618,0.580,�k,2.3,��
2021/11/01,10:20,0.584,0.875,0.558,1.069,0.753,0.354,0.618,0.581,�k,2.6,��
2021/11/01,10:30,0.585,0.874,0.556,1.072,0.752,0.355,0.616,0.581,�k�k��,3.4,��
2021/11/01,10:40,0.585,0.874,0.558,1.071,0.752,0.354,0.615,0.582,�k�k��,2.5,��
2021/11/01,10:50,0.585,0.873,0.557,1.071,0.752,0.355,0.618,0.582,�k�k��,3.1,��
2021/11/01,11:00,0.585,0.872,0.557,1.071,0.752,0.354,0.617,0.582,�k�k��,2.6,��
2021/11/01,11:10,0.585,0.875,0.557,1.074,0.752,0.354,0.618,0.581,�k�k��,3.1,��
2021/11/01,11:20,0.585,0.873,0.558,1.073,0.752,0.357,0.617,0.579,�k�k��,3.2,��
2021/11/01,11:30,0.585,0.876,0.557,1.070,0.751,0.356,0.619,0.582,�k�k��,3.5,��
2021/11/01,11:40,0.585,0.876,0.556,1.072,0.753,0.355,0.618,0.582,�k�k��,3.6,��
2021/11/01,11:50,0.586,0.876,0.556,1.073,0.750,0.356,0.616,0.580,�k��,3.9,��
2021/11/01,12:00,0.586,0.879,0.555,1.072,0.753,0.355,0.617,0.582,�k�k��,3.8,��
2021/11/01,12:10,0.586,0.878,0.558,1.072,0.752,0.355,0.617,0.581,�k�k��,3.9,��
2021/11/01,12:20,0.587,0.875,0.555,1.073,0.754,0.355,0.619,0.581,�k�k��,3.9,��
2021/11/01,12:30,0.586,0.875,0.557,1.073,0.752,0.357,0.618,0.581,�k�k��,3.6,��
2021/11/01,12:40,0.585,0.877,0.557,1.072,0.752,0.355,0.619,0.581,�k�k��,3.9,��
2021/11/01,12:50,0.586,0.875,0.556,1.072,0.751,0.357,0.618,0.580,�k�k��,4.1,��
2021/11/01,13:00,0.587,0.877,0.557,1.073,0.752,0.357,0.619,0.579,�k�k��,3.5,��
2021/11/01,13:10,0.585,0.875,0.556,1.072,0.753,0.356,0.619,0.580,�k��,3.8,��
2021/11/01,13:20,0.585,0.878,0.558,1.071,0.753,0.355,0.618,0.580,�k�k��,4.0,��
2021/11/01,13:30,0.586,0.876,0.559,1.070,0.752,0.355,0.617,0.579,�k�k��,4.4,��
2021/11/01,13:40,0.588,0.876,0.557,1.074,0.755,0.355,0.619,0.579,�k�k��,4.7,��
2021/11/01,13:50,0.586,0.875,0.556,1.073,0.755,0.356,0.619,0.580,�k�k��,4.7,��
2021/11/01,14:00,0.586,0.875,0.558,1.072,0.752,0.356,0.619,0.578,�k�k��,4.3,��
2021/11/01,14:10,0.584,0.876,0.557,1.073,0.754,0.355,0.618,0.581,�k�k��,4.4,��
2021/11/01,14:20,0.586,0.877,0.557,1.072,0.753,0.356,0.622,0.580,�k�k��,3.4,��
2021/11/01,14:30,0.587,0.876,0.556,1.074,0.753,0.353,0.618,0.579,�k�k��,3.6,��
2021/11/01,14:40,0.585,0.879,0.555,1.074,0.753,0.355,0.620,0.579,�k�k��,3.7,��
2021/11/01,14:50,0.585,0.878,0.555,1.073,0.756,0.357,0.619,0.580,�k�k��,3.4,��
2021/11/01,15:00,0.586,0.876,0.556,1.073,0.753,0.355,0.619,0.580,�k�k��,3.4,��
2021/11/01,15:10,0.584,0.876,0.559,1.070,0.754,0.357,0.620,0.580,�k�k��,2.2,��
2021/11/01,15:20,0.586,0.878,0.557,1.071,0.753,0.357,0.620,0.580,�k,2.2,��
2021/11/01,15:30,0.585,0.879,0.559,1.072,0.755,0.355,0.620,0.581,�k,3.0,��
2021/11/01,15:40,0.584,0.880,0.558,1.072,0.754,0.357,0.619,0.581,�k,2.6,��
2021/11/01,15:50,0.584,0.880,0.560,1.075,0.755,0.357,0.619,0.580,�k�k��,2.8,��
2021/11/01,16:00,0.586,0.878,0.559,1.073,0.756,0.357,0.619,0.582,�k,1.5,��
2021/11/01,16:10,0.585,0.882,0.560,1.074,0.756,0.357,0.620,0.581,�k,1.4,��
2021/11/01,16:20,0.584,0.879,0.559,1.072,0.757,0.357,0.620,0.581,�k�k��,1.2,��
2021/11/01,16:30,0.586,0.881,0.559,1.072,0.756,0.356,0.619,0.582,�k,1.7,��
2021/11/01,16:40,0.588,0.882,0.558,1.074,0.757,0.358,0.620,0.581,�k�k��,2.2,��
2021/11/01,16:50,0.587,0.883,0.559,1.076,0.756,0.356,0.620,0.583,�k�k��,2.5,��
2021/11/01,17:00,0.588,0.882,0.559,1.073,0.756,0.357,0.620,0.584,�k�k��,2.3,��
2021/11/01,17:10,0.588,0.882,0.560,1.070,0.757,0.359,0.619,0.584,�k,2.5,��
2021/11/01,17:20,0.587,0.881,0.558,1.073,0.758,0.358,0.620,0.585,�k�k��,3.0,��
2021/11/01,17:30,0.588,0.883,0.559,1.074,0.758,0.357,0.620,0.583,�k�k��,3.6,��
2021/11/01,17:40,0.587,0.882,0.561,1.073,0.755,0.357,0.620,0.583,�k�k��,3.2,��
2021/11/01,17:50,0.588,0.882,0.559,1.074,0.756,0.357,0.621,0.584,�k�k��,3.5,��
2021/11/01,18:00,0.586,0.881,0.560,1.072,0.754,0.357,0.620,0.584,�k�k��,3.9,��
2021/11/01,18:10,0.587,0.881,0.560,1.074,0.757,0.357,0.620,0.583,�k�k��,3.8,��
2021/11/01,18:20,0.586,0.882,0.560,1.074,0.757,0.357,0.621,0.583,�k�k��,3.3,��
2021/11/01,18:30,0.587,0.881,0.559,1.071,0.758,0.357,0.620,0.582,�k�k��,3.4,��
2021/11/01,18:40,0.587,0.880,0.559,1.071,0.756,0.356,0.621,0.584,�k�k��,3.1,�L
2021/11/01,18:50,0.587,0.881,0.558,1.073,0.757,0.357,0.621,0.583,�k�k��,3.6,�L
2021/11/01,19:00,0.586,0.880,0.560,1.074,0.755,0.358,0.619,0.583,�k�k��,5.0,�L
2021/11/01,19:10,0.587,0.884,0.559,1.072,0.756,0.357,0.622,0.583,�k�k��,5.0,�L
2021/11/01,19:20,0.588,0.883,0.560,1.073,0.756,0.357,0.620,0.582,�k�k��,4.5,�L
2021/11/01,19:30,0.587,0.882,0.560,1.073,0.758,0.358,0.621,0.584,�k�k��,3.7,�L
2021/11/01,19:40,0.586,0.881,0.558,1.074,0.758,0.357,0.621,0.583,�k�k��,4.3,��
2021/11/01,19:50,0.586,0.883,0.558,1.072,0.756,0.357,0.620,0.584,�k�k��,5.4,��
2021/11/01,20:00,0.587,0.882,0.560,1.074,0.756,0.359,0.620,0.582,�k�k��,6.1,��
2021/11/01,20:10,0.587,0.882,0.559,1.074,0.755,0.359,0.621,0.583,�k�k��,5.5,��
2021/11/01,20:20,0.587,0.882,0.559,1.072,0.756,0.358,0.620,0.582,�k�k��,4.6,��
2021/11/01,20:30,0.586,0.882,0.559,1.072,0.758,0.360,0.620,0.583,�k�k��,3.9,��
2021/11/01,20:40,0.587,0.882,0.559,1.076,0.756,0.358,0.620,0.584,�k��,4.4,��
2021/11/01,20:50,0.588,0.881,0.559,1.072,0.756,0.357,0.621,0.581,�k�k��,4.4,��
2021/11/01,21:00,0.588,0.882,0.559,1.072,0.755,0.357,0.619,0.582,�k�k��,4.6,��
2021/11/01,21:10,0.588,0.878,0.559,1.074,0.758,0.358,0.620,0.583,�k��,4.8,��
2021/11/01,21:20,0.586,0.880,0.558,1.074,0.757,0.358,0.620,0.583,�k��,4.7,��
2021/11/01,21:30,0.588,0.881,0.559,1.071,0.756,0.358,0.619,0.584,�k��,4.5,��
2021/11/01,21:40,0.586,0.881,0.560,1.071,0.756,0.358,0.618,0.584,�k��,4.6,��
2021/11/01,21:50,0.586,0.882,0.560,1.070,0.756,0.357,0.620,0.584,�k�k��,5.0,��
2021/11/01,22:00,0.588,0.881,0.560,1.072,0.757,0.359,0.618,0.583,�k��,5.1,��
2021/11/01,22:10,0.588,0.883,0.561,1.073,0.757,0.358,0.619,0.583,�k�k��,4.4,��
2021/11/01,22:20,0.589,0.883,0.559,1.070,0.757,0.359,0.619,0.583,�k�k��,4.3,��
2021/11/01,22:30,0.586,0.878,0.559,1.071,0.754,0.357,0.619,0.583,�k�k��,4.8,��
2021/11/01,22:40,0.588,0.882,0.560,1.070,0.758,0.357,0.619,0.583,�k�k��,4.4,��
2021/11/01,22:50,0.586,0.882,0.558,1.072,0.755,0.357,0.619,0.583,�k��,4.5,��
2021/11/01,23:00,0.587,0.880,0.560,1.072,0.755,0.358,0.620,0.586,�k�k��,3.9,��
2021/11/01,23:10,0.586,0.879,0.558,1.071,0.758,0.357,0.618,0.585,�k�k��,4.5,�L
2021/11/01,23:20,0.587,0.879,0.558,1.073,0.757,0.358,0.619,0.584,�k��,4.1,�L
2021/11/01,23:30,0.586,0.878,0.560,1.074,0.755,0.358,0.619,0.584,�k��,3.8,�L
2021/11/01,23:40,0.588,0.880,0.559,1.074,0.755,0.358,0.619,0.583,�k�k��,4.8,�L
2021/11/01,23:50,0.588,0.880,0.559,1.075,0.757,0.357,0.619,0.585,�k�k��,5.1,��
